This is the latest recevied weather packets stored in our database for station/object W8RSN-13. If no packets are shown the sender has not sent any weather packets the latest 10 day(s).
| Time | Temp. | Humidity | Pressure | Rain* | Wind** | Luminosity | Snow |
|---|---|---|---|---|---|---|---|
| 1787642600 | 25° C | 50% | 1016.2 hPa | - | - | - | - |
| 1787642299 | 25.56° C | 49% | 1016.3 hPa | - | - | - | - |
| 1787641998 | 25.56° C | 48% | 1016.3 hPa | - | - | - | - |
| 1787641698 | 25.56° C | 48% | 1016.1 hPa | - | - | - | - |
| 1787641397 | 25.56° C | 48% | 1016.3 hPa | - | - | - | - |
| 1787641096 | 26.11° C | 47% | 1016.4 hPa | - | - | - | - |
| 1787640815 | 26.11° C | 47% | 1016.3 hPa | - | - | - | - |
| 1787640514 | 26.11° C | 46% | 1016.5 hPa | - | - | - | - |
| 1787640213 | 26.11° C | 47% | 1016.4 hPa | - | - | - | - |
| 1787639912 | 26.11° C | 47% | 1016.2 hPa | - | - | - | - |
| 1787639611 | 26.11° C | 46% | 1016.2 hPa | - | - | - | - |
| 1787639311 | 26.11° C | 46% | 1016.4 hPa | - | - | - | - |
| 1787639009 | 26.11° C | 47% | 1016.3 hPa | - | - | - | - |
| 1787638709 | 26.67° C | 45% | 1016.3 hPa | - | - | - | - |
| 1787638408 | 26.67° C | 45% | 1016.3 hPa | - | - | - | - |
| 1787638107 | 26.67° C | 45% | 1016.3 hPa | - | - | - | - |
| 1787637806 | 27.22° C | 45% | 1016.3 hPa | - | - | - | - |
| 1787637505 | 27.22° C | 45% | 1016.2 hPa | - | - | - | - |
| 1787637204 | 27.22° C | 45% | 1016.6 hPa | - | - | - | - |
| 1787636903 | 27.22° C | 43% | 1016.3 hPa | - | - | - | - |
| 1787636602 | 27.78° C | 42% | 1016.3 hPa | - | - | - | - |
| 1787636301 | 27.78° C | 42% | 1016.3 hPa | - | - | - | - |
| 1787636000 | 27.78° C | 42% | 1016.4 hPa | - | - | - | - |
| 1787635699 | 27.78° C | 43% | 1016.5 hPa | - | - | - | - |
| 1787635398 | 27.22° C | 45% | 1016.4 hPa | - | - | - | - |
* Rain since midnight (hover to see other rain measurements)
** Current wind speed in m/s (hover to see current wind gust speed)